Showing default

FLOCK 4Q 23, 58307

Orbit data source: Space-Track

FLOCK 4Q 23, 58307 is a payload satellite owned by Planet (US) in SSO that was launched on Sat, 11 Nov 2023 UTC via an FALCON 9 launch vehicle from the Air Force Western Test Range (AFWTR). Payload-class satellites include a variety of spacecraft equipped with specific instruments for various scientific and technological missions. These include communications satellites like Starlink; space stations such as the ISS; scientific satellites like the Hubble; Earth observation satellites from companies like Planet Labs, Umbra, and HawkEye 360; GPS; miniature CubeSats for education and research; and military/defense satellites.

Loading next visibility...
Identifier
58307, 2023-174BD
Orbit
SSO
Country
Flag of USUS
Related business
Manufacturer
Planet
Mission
Non-operational Commercial Imaging
Bus & Motor
CUBESAT 3U, Unknown motor
Mass
5.7 kg wet, 5.7 kg dry
Launch date (UTC)
2023-11-11 (3 years ago)
Launch vehicle
FALCON 9
Launch site
Air Force Western Test Range (AFWTR)
Object type
Payload
Rocket body
Debris
Shape & HBR
Box + 2 Pan, 1.0 m
Radar Cross Section
0.072 m², Medium (>0.1 m² and < 1m²)

Expand to show TLE details & history
Last TLE update: 2 days ago

TLE from 2 days ago
0 FLOCK 4Q 23
1 58307U 23174BD  26171.18376939  .00247452  00000-0  14238-2 0  9997
2 58307  97.3887 266.4197 0006023 205.4378 154.6593 15.78014246146442
Epoch: 2026-06-20T04:24Z
TLE epoch observation values (Epoch: 2026-06-20T04:24:37.675Z)
Latitude
Longitude
-68.13932°
Altitude
342.893 km
Speed
7.701 km/s
True Right ascension
17h 45m 40s
True Declination
0° 00' 00"
Sunlit
Object was in full shadow at epoch
Visualization orbit readout
Latitude
Unknown
Longitude
Unknown
Altitude
Unknown
Speed
Unknown
Apparent Right ascension
Unknown
Apparent Declination
Unknown
Sunlit
N/A
Visualization observer readout
Local Sidereal Time
21:39:02
Azimuth
Unknown
Elevation
Unknown
Doppler factor
Unknown
Orbital elements
Apogee altitude
336.998 km
Perigee altitude
328.914 km
Semi-major axis
6,711.093 km
Eccentricity
0.0006
Inclination
97.3887°
RAAN
266.4197°
Arg. of periapsis
205.4378°
True anomaly
154.68882°
Mean anomaly
154.6593°
Eccentric anomaly
154.67406°
Mean motion
3.94778 °/min
Orbital period
91.19 mins
BSTAR
0.0014238
Loading maneuver chart data...
Computing Atmospheric mass density...

Documentation

Showing up to 5 results
|